Consulta les dades en temps real de l'estació municipal de Vilalleons
| Hora UTC | 10:35 |
|---|---|
| Temperatura | 32.1 ºC |
| Humitat | 50.0 % |
| Pressió | 1021.5 hPa |
| Pluja | 0.0 mm |
| Velocitat vent | 1.6 km/h |
| Direcció vent | E |
| Temperatura (ºC) | Humitat (%) | Pressió (hPa) | Velocitat vent (km/h) | Precipitació (mm) | ||||||||||||
|---|---|---|---|---|---|---|---|---|---|---|---|---|---|---|---|---|
| Hora UTC | Aire | Humitat | Pressió | Vel. | Dir. | Vel. Max | Dir. | Intent. màx 5 min. | ||||||||
| 00:05 | 18.8 | 87.0 | 1021.5 | 0.0 | S | 0.0 | 0.0 | |||||||||
| 00:10 | 18.8 | 88.0 | 1021.4 | 0.0 | S | 0.0 | 0.0 | |||||||||
| 00:15 | 18.8 | 88.0 | 1021.4 | 0.0 | S | 0.0 | 0.0 | |||||||||
| 00:20 | 18.8 | 88.0 | 1021.3 | 0.0 | S | 0.0 | 0.0 | |||||||||
| 00:25 | 18.8 | 88.0 | 1021.3 | 0.0 | S | 0.0 | 0.0 | |||||||||
| 00:30 | 18.8 | 88.0 | 1021.4 | 0.0 | S | 0.0 | 0.0 | |||||||||
| 00:35 | 18.7 | 88.0 | 1021.3 | 0.0 | S | 0.0 | 0.0 | |||||||||
| 00:40 | 18.6 | 88.0 | 1021.3 | 0.0 | S | 0.0 | 0.0 | |||||||||
| 00:45 | 18.7 | 88.0 | 1021.3 | 0.0 | S | 0.0 | 0.0 | |||||||||
| 00:50 | 18.6 | 88.0 | 1021.3 | 0.0 | S | 0.0 | 0.0 | |||||||||
| 00:55 | 18.6 | 89.0 | 1021.1 | 0.0 | S | 0.0 | 0.0 | |||||||||
| 01:00 | 18.6 | 89.0 | 1021.1 | 0.0 | S | 0.0 | 0.0 | |||||||||
| 01:05 | 18.4 | 89.0 | 1021.0 | 0.0 | S | 0.0 | 0.0 | |||||||||
| 01:10 | 18.4 | 89.0 | 1020.9 | 0.0 | S | 0.0 | 0.0 | |||||||||
| 01:15 | 18.4 | 89.0 | 1020.8 | 0.0 | S | 0.0 | 0.0 | |||||||||
| 01:20 | 18.4 | 90.0 | 1020.9 | 0.0 | S | 0.0 | 0.0 | |||||||||
| 01:25 | 18.4 | 90.0 | 1020.9 | 0.0 | S | 0.0 | 0.0 | |||||||||
| 01:30 | 18.4 | 90.0 | 1020.9 | 0.0 | S | 0.0 | 0.0 | |||||||||
| 01:35 | 18.4 | 90.0 | 1020.8 | 0.0 | S | 0.0 | 0.0 | |||||||||
| 01:40 | 18.3 | 90.0 | 1020.9 | 0.0 | S | 0.0 | 0.0 | |||||||||
| 01:45 | 18.3 | 90.0 | 1020.9 | 0.0 | S | 0.0 | 0.0 | |||||||||
| 01:50 | 18.3 | 90.0 | 1020.8 | 0.0 | S | 0.0 | 0.0 | |||||||||
| 01:55 | 18.2 | 91.0 | 1020.7 | 0.0 | S | 0.0 | 0.0 | |||||||||
| 02:00 | 18.2 | 91.0 | 1020.7 | 0.0 | S | 0.0 | 0.0 | |||||||||
| 02:05 | 18.2 | 91.0 | 1020.7 | 0.0 | S | 0.0 | 0.0 | |||||||||
| 02:10 | 18.2 | 91.0 | 1020.7 | 0.0 | S | 0.0 | 0.0 | |||||||||
| 02:15 | 18.1 | 91.0 | 1020.7 | 0.0 | S | 0.0 | 0.0 | |||||||||
| 02:20 | 18.1 | 91.0 | 1020.6 | 0.0 | S | 0.0 | 0.0 | |||||||||
| 02:25 | 17.9 | 91.0 | 1020.6 | 0.0 | S | 0.0 | 0.0 | |||||||||
| 02:30 | 17.9 | 91.0 | 1020.6 | 0.0 | S | 0.0 | 0.0 | |||||||||
| 02:35 | 17.9 | 91.0 | 1020.6 | 0.0 | S | 0.0 | 0.0 | |||||||||
| 02:40 | 17.8 | 91.0 | 1020.5 | 0.0 | S | 0.0 | 0.0 | |||||||||
| 02:45 | 17.9 | 92.0 | 1020.6 | 0.0 | S | 0.0 | 0.0 | |||||||||
| 02:50 | 17.9 | 92.0 | 1020.5 | 0.0 | S | 0.0 | 0.0 | |||||||||
| 02:55 | 17.9 | 92.0 | 1020.5 | 0.0 | S | 0.0 | 0.0 | |||||||||
| 03:00 | 17.8 | 92.0 | 1020.5 | 0.0 | S | 0.0 | 0.0 | |||||||||
| 03:05 | 17.8 | 92.0 | 1020.5 | 0.0 | S | 0.0 | 0.0 | |||||||||
| 03:10 | 17.9 | 92.0 | 1020.4 | 0.0 | S | 0.0 | 0.0 | |||||||||
| 03:15 | 17.8 | 92.0 | 1020.4 | 0.0 | S | 0.0 | 0.0 | |||||||||
| 03:20 | 17.7 | 92.0 | 1020.4 | 0.0 | S | 0.0 | 0.0 | |||||||||
| 03:25 | 18.0 | 93.0 | 1020.3 | 0.0 | S | 0.0 | 0.0 | |||||||||
| 03:30 | 17.8 | 92.0 | 1020.4 | 0.0 | S | 0.0 | 0.0 | |||||||||
| 03:35 | 17.8 | 92.0 | 1020.3 | 0.0 | S | 0.0 | 0.0 | |||||||||
| 03:40 | 17.7 | 92.0 | 1020.3 | 0.0 | S | 0.0 | 0.0 | |||||||||
| 03:45 | 17.7 | 92.0 | 1020.2 | 0.0 | S | 0.0 | 0.0 | |||||||||
| 03:50 | 17.6 | 92.0 | 1020.1 | 0.0 | S | 0.0 | 0.0 | |||||||||
| 03:55 | 17.6 | 92.0 | 1020.0 | 0.0 | S | 0.0 | 0.0 | |||||||||
| 04:00 | 17.7 | 93.0 | 1020.0 | 0.0 | S | 0.0 | 0.0 | |||||||||
| 04:05 | 17.6 | 93.0 | 1020.1 | 0.0 | S | 0.0 | 0.0 | |||||||||
| 04:10 | 17.8 | 93.0 | 1020.0 | 0.0 | S | 0.0 | 0.0 | |||||||||
| 04:15 | 17.6 | 92.0 | 1020.0 | 0.0 | S | 0.0 | 0.0 | |||||||||
| 04:20 | 17.4 | 93.0 | 1019.9 | 0.0 | S | 0.0 | 0.0 | |||||||||
| 04:25 | 17.4 | 93.0 | 1020.0 | 0.0 | S | 0.0 | 0.0 | |||||||||
| 04:30 | 17.3 | 93.0 | 1020.1 | 0.0 | S | 0.0 | 0.0 | |||||||||
| 04:35 | 17.2 | 93.0 | 1020.0 | 0.0 | S | 0.0 | 0.0 | |||||||||
| 04:40 | 17.2 | 93.0 | 1020.0 | 0.0 | S | 0.0 | 0.0 | |||||||||
| 04:45 | 17.2 | 93.0 | 1019.9 | 0.0 | S | 0.0 | 0.0 | |||||||||
| 04:50 | 17.1 | 93.0 | 1019.9 | 0.0 | S | 0.0 | 0.0 | |||||||||
| 04:55 | 17.0 | 93.0 | 1019.8 | 0.0 | S | 0.0 | 0.0 | |||||||||
| 05:00 | 17.0 | 93.0 | 1019.8 | 0.0 | S | 0.0 | 0.0 | |||||||||
| 05:05 | 16.9 | 93.0 | 1019.8 | 0.0 | S | 0.0 | 0.0 | |||||||||
| 05:10 | 16.9 | 94.0 | 1019.8 | 0.0 | S | 0.0 | 0.0 | |||||||||
| 05:15 | 16.9 | 94.0 | 1019.8 | 0.0 | S | 0.0 | 0.0 | |||||||||
| 05:20 | 16.9 | 94.0 | 1019.8 | 0.0 | S | 0.0 | 0.0 | |||||||||
| 05:25 | 16.9 | 94.0 | 1019.7 | 0.0 | S | 0.0 | 0.0 | |||||||||
| 05:30 | 16.9 | 93.0 | 1019.8 | 0.0 | S | 0.0 | 0.0 | |||||||||
| 05:35 | 16.9 | 94.0 | 1019.9 | 0.0 | S | 0.0 | 0.0 | |||||||||
| 05:40 | 16.9 | 94.0 | 1020.2 | 0.0 | S | 0.0 | 0.0 | |||||||||
| 05:45 | 16.9 | 94.0 | 1019.8 | 0.0 | S | 0.0 | 0.0 | |||||||||
| 05:50 | 16.9 | 94.0 | 1019.8 | 0.0 | S | 0.0 | 0.0 | |||||||||
| 05:55 | 17.1 | 94.0 | 1019.8 | 0.0 | S | 0.0 | 0.0 | |||||||||
| 06:00 | 17.1 | 94.0 | 1019.8 | 0.0 | S | 0.0 | 0.0 | |||||||||
| 06:05 | 17.1 | 94.0 | 1019.8 | 0.0 | S | 0.0 | 0.0 | |||||||||
| 06:10 | 17.1 | 95.0 | 1019.9 | 0.0 | S | 0.0 | 0.0 | |||||||||
| 06:15 | 17.1 | 95.0 | 1020.0 | 0.0 | S | 0.0 | 0.0 | |||||||||
| 06:20 | 17.1 | 94.0 | 1019.9 | 0.0 | S | 0.0 | 0.0 | |||||||||
| 06:25 | 17.1 | 94.0 | 1019.8 | 0.0 | S | 0.0 | 0.0 | |||||||||
| 06:30 | 17.0 | 94.0 | 1019.9 | 0.0 | S | 0.0 | 0.0 | |||||||||
| 06:35 | 17.1 | 95.0 | 1019.9 | 0.0 | S | 0.0 | 0.0 | |||||||||
| 06:40 | 17.3 | 96.0 | 1019.7 | 0.0 | S | 0.0 | 0.0 | |||||||||
| 06:45 | 17.4 | 96.0 | 1019.7 | 0.0 | S | 0.0 | 0.0 | |||||||||
| 06:50 | 17.6 | 96.0 | 1019.8 | 0.0 | S | 0.0 | 0.0 | |||||||||
| 06:55 | 17.7 | 96.0 | 1019.8 | 0.0 | S | 0.0 | 0.0 | |||||||||
| 07:00 | 17.9 | 96.0 | 1019.8 | 0.0 | S | 0.0 | 0.0 | |||||||||
| 07:05 | 18.2 | 97.0 | 1019.9 | 0.0 | S | 0.0 | 0.0 | |||||||||
| 07:10 | 18.4 | 97.0 | 1019.8 | 0.0 | S | 0.0 | 0.0 | |||||||||
| 07:15 | 18.6 | 96.0 | 1019.8 | 0.0 | S | 0.0 | 0.0 | |||||||||
| 07:20 | 18.6 | 96.0 | 1020.0 | 0.0 | S | 0.0 | 0.0 | |||||||||
| 07:25 | 18.7 | 95.0 | 1019.9 | 0.0 | S | 0.0 | 0.0 | |||||||||
| 07:30 | 18.8 | 95.0 | 1020.1 | 0.0 | SW | 0.0 | 0.0 | |||||||||
| 07:35 | 19.1 | 94.0 | 1020.2 | 0.0 | SW | 0.0 | 0.0 | |||||||||
| 07:40 | 19.4 | 93.0 | 1020.3 | 0.0 | SW | 0.0 | 0.0 | |||||||||
| 07:45 | 19.7 | 91.0 | 1020.5 | 0.0 | SW | 0.0 | 0.0 | |||||||||
| 07:50 | 20.0 | 90.0 | 1020.6 | 0.0 | SW | 0.0 | 0.0 | |||||||||
| 07:55 | 20.3 | 90.0 | 1020.7 | 0.0 | SW | 0.0 | 0.0 | |||||||||
| 08:00 | 20.4 | 88.0 | 1020.6 | 0.0 | SW | 0.0 | 0.0 | |||||||||
| 08:05 | 20.8 | 86.0 | 1020.6 | 0.0 | WSW | 0.0 | 0.0 | |||||||||
| 08:10 | 21.1 | 84.0 | 1020.6 | 0.0 | WSW | 0.0 | 0.0 | |||||||||
| 08:15 | 21.4 | 83.0 | 1020.8 | 0.0 | WSW | 0.0 | 0.0 | |||||||||
| 08:20 | 21.9 | 81.0 | 1020.8 | 0.0 | WSW | 0.0 | 0.0 | |||||||||
| 08:25 | 22.4 | 80.0 | 1020.9 | 0.0 | WSW | 0.0 | 0.0 | |||||||||
| 08:30 | 22.9 | 78.0 | 1020.9 | 0.0 | WSW | 0.0 | 0.0 | |||||||||
| 08:35 | 23.3 | 77.0 | 1021.1 | 1.6 | WSW | 3.2 | 0.0 | |||||||||
| 08:40 | 23.9 | 76.0 | 1021.2 | 0.0 | WSW | 4.8 | 0.0 | |||||||||
| 08:45 | 24.4 | 74.0 | 1021.3 | 3.2 | W | 4.8 | 0.0 | |||||||||
| 08:50 | 24.9 | 72.0 | 1021.3 | 0.0 | W | 4.8 | 0.0 | |||||||||
| 08:55 | 25.3 | 72.0 | 1021.4 | 0.0 | W | 0.0 | 0.0 | |||||||||
| 09:00 | 25.9 | 71.0 | 1021.4 | 0.0 | WNW | 0.0 | 0.0 | |||||||||
| 09:05 | 26.3 | 70.0 | 1021.5 | 0.0 | WNW | 0.0 | 0.0 | |||||||||
| 09:10 | 26.8 | 67.0 | 1021.6 | 0.0 | WNW | 0.0 | 0.0 | |||||||||
| 09:15 | 27.2 | 66.0 | 1021.6 | 0.0 | WNW | 0.0 | 0.0 | |||||||||
| 09:20 | 27.4 | 64.0 | 1021.7 | 1.6 | NW | 4.8 | 0.0 | |||||||||
| 09:25 | 27.6 | 64.0 | 1021.5 | 3.2 | N | 6.4 | 0.0 | |||||||||
| 09:30 | 27.9 | 64.0 | 1021.7 | 3.2 | NW | 8.0 | 0.0 | |||||||||
| 09:35 | 28.3 | 63.0 | 1021.6 | 0.0 | NNW | 8.0 | 0.0 | |||||||||
| 09:40 | 28.9 | 60.0 | 1021.6 | 3.2 | NNW | 6.4 | 0.0 | |||||||||
| 09:45 | 29.5 | 59.0 | 1021.8 | 4.8 | NW | 6.4 | 0.0 | |||||||||
| 09:50 | 29.9 | 57.0 | 1021.7 | 4.8 | N | 6.4 | 0.0 | |||||||||
| 09:55 | 30.1 | 55.0 | 1021.5 | 4.8 | NNW | 8.0 | 0.0 | |||||||||
| 10:00 | 30.4 | 55.0 | 1021.6 | 0.0 | NNW | 6.4 | 0.0 | |||||||||
| 10:05 | 30.9 | 53.0 | 1021.6 | 1.6 | NNW | 6.4 | 0.0 | |||||||||
| 10:10 | 31.2 | 51.0 | 1021.6 | 3.2 | NNE | 6.4 | 0.0 | |||||||||
| 10:15 | 31.2 | 51.0 | 1021.6 | 1.6 | NW | 8.0 | 0.0 | |||||||||
| 10:20 | 31.3 | 51.0 | 1021.6 | 4.8 | NNW | 8.0 | 0.0 | |||||||||
| 10:25 | 31.3 | 51.0 | 1021.6 | 3.2 | NW | 12.9 | 0.0 | |||||||||
| 10:30 | 31.7 | 50.0 | 1021.6 | 3.2 | NW | 12.9 | 0.0 | |||||||||
| 10:35 | 32.1 | 50.0 | 1021.5 | 1.6 | E | 4.8 | 0.0 | |||||||||
| Màxima | 32.1 | 97.0 | 1021.8 | 4.8 | NNW | 12.9 | 0.0 | |||||||||
| Mínima | 16.9 | 50.0 | 1019.7 | |||||||||||||
| Total | 0.0 | |||||||||||||||